Tracking 18980 objects as of 21-Feb-2018
HD Live streaming from Space Station
objects crossing your sky now

CZ-2D DEB

Track CZ-2D DEB now!
10-day predictions


NORAD ID: 43147
Int'l Code: 2018-006B
Perigee: 499.6 km
Apogee: 516.7 km
Inclination: 97.2 °
Period: 94.6 minutes
Semi major axis: 6879 km
RCS: Unknown
Launch date: January 13, 2018
Source: People's Republic of China (PRC)
Launch site: Jiuquan Satellite Launch Center, China (JSC)

Note: This is SATELLITE DEBRIS
aabbcc
Your satellite tracking list
Your tracking list is empty




NASA's NSSDC Master Catalog

Two Line Element Set (TLE):
1 43147U 18006B   18050.69662641  .00002072  00000-0  94609-4 0  9991
2 43147  97.2309 171.1908 0012439 343.0711  17.0136 15.21611216  5689
Source of the keplerian elements: AFSPC